Location: Cowley
(49.5667°N, 114.0667°W)
Time: 11:02:55
(UTC+00:00)

Envisat - Pass Details

Date: 09 December 2021
Orbit: 764 x 766 km, 98.2° (Epoch: 25 January)

Event Time Altitude Azimuth Distance (km) Brightness Sun altitude
Rises 12:25:13 0° 17° (NNE) 3,246 6.4 -27.3°
Reaches altitude 10° 12:27:35 10° 21° (NNE) 2,315 5.6 -27.0°
Maximum altitude 12:32:37 58° 101° (E) 889 3.5 -26.1°
Drops below altitude 10° 12:37:36 10° 180° (S) 2,297 5.5 -25.3°
Sets 12:39:56 0° 185° (S) 3,218 6.3 -25.0°
